Flag Weather past 2 weeks in Grudziądz, Poland

Now
34 °F

Passing clouds.


Feels Like: 29 °F
Forecast: 35 / 44 °F
Wind: 6 mph from Southeast

Location: Torun

Current Time: Nov 24, 2014 at 4:15:17 AM

Latest Report: Nov 24, 2014 at 3:00 AM


Visibility: 8 mi

Pressure: 30.38 "Hg

Humidity: 88%

Dew point: 31 °F

Location of GrudziądzLocation

Historic Weather in Grudziądz — Graph

°F

Grudziądz temperature yesterday

Maximum temperature yesterday: 40 °F (at 2:00 PM)
Minimum temperature yesterday: 33 °F (at 6:00 AM)
Average temperature yesterday: 37 °F

Past Weeks' High & Low Weather Summary

 TemperatureHumidityPressure
High55 °F (Nov 10, 2:00 PM)100% (Nov 9, 3:00 AM)30.47 "Hg (Nov 9, 3:00 AM)
Low32 °F (Nov 21, 2:00 AM)81% (Nov 23, 3:00 PM)29.84 "Hg (Nov 16, 2:00 PM)
Average42 °F93%30.10 "Hg
* Reported Nov 9 3:00 AM — Nov 24 3:00 AM, Grudziądz, Weather by CustomWeather, © 2014

Note: Actual official high and low records may vary slightly from our data, if they occured in-between our weather recording intervals... More about our weather records

Advertising

Grudziądz weather history for previous 24 hours

 ConditionsComfort  
Time TempWeatherWind HumidityBarometerVisibility
3:00 AM
Nov 24
34 °FPassing clouds.6 mph88%30.38 "Hg7 mi
2:00 AM34 °FPassing clouds.6 mph89%30.39 "Hg7 mi
1:00 AM34 °FPassing clouds.5 mph88%30.41 "Hg6 mi
12:00 AM35 °FPassing clouds.6 mph87%30.41 "Hg6 mi
11:00 PM
Nov 23
36 °FOvercast.6 mph86%30.42 "Hg6 mi
9:00 PM38 °FFog.6 mph85%30.43 "Hg6 mi
8:00 PM38 °FFog.5 mph84%30.42 "Hg5 mi
7:00 PM38 °FFog.3 mph84%30.43 "Hg5 mi
6:00 PM38 °FFog.5 mph86%30.42 "Hg4 mi
5:00 PM38 °FFog.3 mph85%30.43 "Hg5 mi
4:00 PM39 °FFog.2 mph84%30.43 "Hg4 mi
3:00 PM40 °FFog.3 mph81%30.43 "Hg5 mi
2:00 PM40 °FFog.3 mph83%30.44 "Hg4 mi
1:00 PM40 °FFog.5 mph83%30.45 "Hg4 mi
12:00 PM38 °FFog.3 mph87%30.45 "Hg2 mi
11:00 AM38 °FFog.3 mph87%30.47 "Hg3 mi
10:00 AM38 °FFog.3 mph89%30.47 "Hg3 mi
9:00 AM36 °FFog.3 mph92%30.46 "Hg2 mi
8:00 AM35 °FFog.3 mph93%30.45 "Hg2 mi
7:00 AM34 °FFog.3 mph95%30.43 "Hg2 mi
6:00 AM33 °FFog.2 mph95%30.42 "Hg1 mi
5:00 AM35 °FFog.3 mph94%30.42 "Hg2 mi
4:00 AM35 °FFog.2 mph94%30.42 "Hg2 mi
Weather by CustomWeather, © 2014

See weather overviewHow to use our weather pages